GFSSE_500_spd_132.txt.gz
Wind_Speed
12 11 11 11 12 13 21 22 21 20 19 19 19 18 16 15 15 16 15 14 14 13 13 12 13 12 11 11 12 13 14 15 15 15 15 14 14 13 14 14 13 12 12
12 12 12 12 12 13 14 23 21 19 18 18 17 17 15 14 14 15 15 15 13 13 12 13 12 12 12 11 12 14 16 15 15 15 14 14 13 13 14 12 12 12 12
9 10 12 13 13 17 20 21 20 20 18 17 16 16 16 15 15 15 14 14 13 13 13 13 13 14 14 11 14 17 16 16 15 14 13 13 14 13 12 13 15 17 19
8 9 10 12 13 16 19 19 19 18 17 18 16 16 15 14 13 13 14 15 14 14 14 14 13 17 14 19 20 20 17 16 15 14 13 13 14 14 17 18 21 20 18
8 9 10 11 14 15 16 18 19 17 16 16 17 16 15 14 14 13 12 13 12 13 14 15 7 15 16 18 19 18 17 17 15 15 12 14 18 21 22 20 18 17 16
8 8 10 12 14 16 16 17 17 18 18 18 18 17 16 15 15 14 13 14 14 14 13 14 13 16 17 18 18 17 17 15 14 13 13 17 22 22 18 18 17 15 14
8 8 10 11 13 14 17 17 17 17 18 18 18 16 16 16 15 17 14 12 13 11 13 12 9 21 18 16 17 16 15 14 12 13 16 22 21 18 16 16 15 15 16
9 8 8 10 11 12 15 16 17 17 18 17 16 17 16 16 16 14 13 12 15 12 13 14 25 17 18 18 17 15 13 12 13 17 20 20 18 16 15 14 16 16 15
7 6 5 6 10 11 13 15 16 17 18 19 18 18 17 17 16 15 14 15 17 16 19 21 18 19 19 18 17 14 15 17 18 20 18 17 16 15 15 17 16 15 16
6 5 5 6 7 11 12 14 15 17 17 26 21 19 17 17 16 15 14 14 16 17 18 16 16 18 18 17 16 17 19 19 19 19 17 16 15 16 16 16 16 17 17
3 2 4 6 6 8 14 17 16 13 18 23 21 19 17 17 16 15 14 14 14 15 16 16 16 18 17 16 17 18 19 19 18 18 16 16 15 15 15 17 16 17 17
5 3 3 4 3 1 12 13 17 18 21 21 20 18 17 17 17 16 15 15 15 14 15 16 17 18 18 16 18 19 19 18 17 16 16 14 15 15 16 16 17 17 19
5 4 5 7 7 7 12 18 23 19 19 21 20 19 18 19 18 18 16 16 17 15 15 15 17 18 16 16 18 19 18 17 15 15 14 14 15 14 16 14 16 18 20
5 6 8 8 9 15 19 25 21 22 18 20 19 20 20 19 19 19 18 18 17 16 16 16 17 17 16 16 17 17 16 15 14 14 14 15 13 12 13 15 17 19 21
6 8 9 11 15 17 19 23 23 20 21 21 21 21 20 20 20 18 18 18 18 17 17 16 16 16 16 16 16 15 15 14 14 13 14 12 11 13 13 16 18 19 20
8 9 12 14 18 19 22 24 21 21 20 21 20 20 20 20 19 19 18 19 19 18 17 15 15 16 16 16 16 16 16 16 14 13 11 10 12 12 13 15 16 17 18
9 11 15 20 21 22 22 24 19 20 20 19 19 19 21 19 19 18 18 18 19 18 17 15 14 14 14 13 14 14 14 15 15 11 10 10 12 10 10 14 15 14 18
12 18 19 22 22 22 21 21 21 20 18 17 17 18 18 17 19 18 18 19 19 19 17 14 13 13 13 12 13 14 14 15 13 11 10 11 10 9 9 10 13 14 17
14 17 20 23 22 24 22 22 21 18 16 16 16 15 16 18 16 16 17 19 19 19 17 15 14 14 13 13 13 14 14 14 12 10 9 9 8 7 7 8 12 13 15
14 17 18 22 22 23 22 21 20 19 18 17 17 16 15 14 16 16 17 18 19 20 17 15 16 15 14 13 13 13 12 11 10 8 8 6 6 5 5 9 11 11 13
14 16 17 19 22 24 25 23 21 19 17 16 17 17 15 14 15 16 17 19 19 19 17 17 16 14 13 12 12 11 10 9 9 7 6 3 2 3 6 9 11 12 12
15 16 17 18 19 23 23 23 22 20 18 17 16 16 14 14 14 17 19 19 21 21 18 16 16 14 13 11 11 11 10 9 7 7 5 2 1 3 6 9 10 10 11
15 18 18 19 22 24 24 24 23 20 18 16 15 16 15 14 14 16 19 19 19 18 17 15 15 15 14 13 12 10 9 7 6 4 4 4 4 4 6 8 8 8 8
16 18 19 20 22 22 22 21 21 22 20 17 14 14 14 14 15 15 17 17 18 16 14 12 15 16 14 13 12 11 9 8 7 7 7 6 5 7 5 6 5 5 6
18 18 20 20 20 20 19 20 19 20 21 21 16 13 13 14 13 15 15 16 15 15 15 14 15 14 13 12 12 10 10 9 9 9 7 4 3 7 9 6 5 4 6
19 19 20 21 20 20 18 18 18 17 17 18 17 17 15 13 13 13 13 12 13 14 15 14 14 13 13 11 11 11 10 11 10 9 8 6 7 9 8 6 5 4 5

GFSSE_500_spd_135.txt.gz
Wind_Speed
8 9 10 8 7 12 16 24 21 23 19 18 20 20 18 16 15 13 12 11 11 9 8 7 7 8 9 10 10 12 13 14 14 13 14 14 14 14 14 13 12 12 11
6 7 9 10 11 14 24 21 23 24 21 19 18 19 17 14 14 13 11 10 9 9 8 8 9 9 10 12 14 15 14 13 14 13 13 14 14 14 13 13 12 14 13
5 5 7 11 10 10 7 20 21 22 20 18 17 17 17 14 12 12 10 9 9 9 10 10 10 10 9 11 14 14 14 14 14 14 14 13 14 14 15 16 17 18 16
5 5 6 9 11 15 17 19 20 19 19 18 17 17 16 15 14 12 12 11 11 11 10 9 12 11 12 12 19 16 15 15 15 16 12 13 16 18 19 18 17 16 15
5 5 6 8 10 12 15 17 18 17 17 17 17 17 17 16 14 13 12 11 12 12 10 8 15 22 21 21 19 17 16 16 15 14 15 18 22 19 17 16 15 15 14
7 6 5 7 10 14 14 15 16 15 15 15 15 15 15 15 15 14 13 14 14 13 9 12 18 19 20 20 19 19 16 15 15 16 19 21 19 17 15 15 15 16 15
6 6 6 8 10 12 15 16 15 15 14 15 15 15 14 14 14 13 12 12 12 12 10 10 18 19 18 19 19 17 15 16 15 19 19 18 17 15 15 16 16 16 15
5 6 7 8 10 12 12 14 15 15 15 14 13 13 15 15 14 12 9 10 11 14 11 12 22 17 19 19 17 14 14 18 19 20 18 16 16 15 16 17 16 15 14
4 6 4 7 8 12 12 14 14 14 14 14 14 14 15 15 13 13 13 15 16 20 23 22 19 19 19 18 15 16 19 22 21 19 16 17 16 17 17 16 14 15 16
5 4 4 6 9 10 12 13 15 16 16 15 16 15 15 14 14 15 16 16 18 25 21 20 20 19 18 17 19 21 22 23 19 18 17 17 18 16 15 16 16 16 17
4 3 1 5 6 10 12 15 16 17 20 17 16 16 15 15 15 15 17 17 19 19 19 20 19 19 16 18 22 22 23 20 19 18 18 18 16 14 15 15 16 17 16
3 2 5 7 8 7 15 17 14 15 21 18 18 17 17 17 16 17 18 17 18 18 18 19 19 18 18 19 22 22 22 20 19 19 17 16 15 14 15 16 17 17 17
2 1 2 5 6 8 15 18 16 20 21 20 18 17 17 17 17 18 19 18 18 18 18 18 19 18 18 20 22 21 20 19 19 17 15 16 12 15 14 16 16 17 18
3 1 3 3 2 7 15 21 20 19 21 20 19 18 18 17 17 18 19 19 18 17 17 17 18 18 19 20 20 20 19 19 17 16 14 14 14 14 14 15 16 20 19
4 4 2 6 8 14 22 18 18 20 21 20 20 20 19 18 19 19 20 20 19 18 18 18 17 18 20 20 18 19 18 18 16 14 12 14 13 13 13 13 15 19 20
5 5 5 11 14 16 19 21 20 19 22 20 20 19 20 18 18 19 20 20 19 18 17 17 17 17 19 18 18 18 18 17 15 11 11 12 12 11 12 12 15 17 17
5 8 9 12 15 20 21 18 19 20 21 20 19 18 17 17 17 18 20 18 20 18 17 17 17 17 17 18 17 17 17 15 13 11 10 9 10 10 11 11 12 13 15
8 10 14 15 16 18 20 17 18 18 19 18 18 17 17 17 18 18 19 20 19 18 17 17 16 17 17 17 16 16 16 15 13 11 8 9 9 8 4 9 11 12 14
12 13 18 20 21 20 19 18 16 15 15 15 16 16 16 17 18 16 17 19 19 18 16 17 16 16 17 16 16 15 15 14 12 10 6 6 7 8 8 8 9 11 12
12 16 18 20 21 21 21 19 17 15 15 15 16 16 16 17 16 16 16 18 17 16 16 17 16 16 16 15 16 15 13 12 10 8 5 4 4 6 7 7 8 9 10
12 14 16 17 18 20 20 19 18 17 17 16 16 17 17 16 16 17 18 19 10 17 16 17 16 15 13 14 12 12 11 10 7 6 4 2 2 3 5 6 8 8 8
13 13 16 16 17 18 18 18 18 17 16 16 16 15 14 14 15 18 20 22 21 18 16 16 15 14 13 13 13 13 12 9 7 6 4 1 2 4 5 6 7 6 7
12 13 15 17 19 20 19 18 18 16 15 14 14 13 14 15 16 19 20 21 21 18 12 13 14 16 12 13 13 10 10 8 8 5 5 5 4 5 6 7 6 3 6
13 14 15 18 20 19 18 18 16 15 15 15 13 13 13 15 17 19 20 22 21 18 12 13 14 16 14 11 12 11 10 10 8 3 1 10 7 4 6 7 4 3 4
15 15 15 19 21 20 19 17 16 16 14 14 15 14 14 15 16 17 20 20 20 19 17 14 12 13 12 11 9 9 9 9 7 8 3 3 6 7 7 5 4 1 2
16 17 17 19 22 21 20 17 17 15 14 12 11 12 12 14 15 16 17 18 18 17 15 13 13 12 11 10 10 10 9 9 7 6 5 5 9 8 8 6 7 4 2

GFSSE_500_spd_138.txt.gz
Wind_Speed
6 5 6 6 5 6 11 17 23 21 19 21 20 20 16 13 11 11 9 9 8 9 7 9 10 11 11 13 14 15 15 14 15 16 15 15 15 15 14 13 13 12 13
4 4 4 5 5 6 10 26 21 24 22 19 18 20 16 13 12 9 8 8 8 7 9 9 10 11 12 16 17 14 13 14 16 15 15 15 14 14 14 17 17 19 17
4 5 6 7 6 13 16 22 22 20 22 20 18 18 18 11 10 9 8 8 8 7 8 9 9 9 12 9 13 14 14 15 15 15 14 15 15 17 20 20 20 18 17
6 8 6 7 7 3 6 10 18 19 19 19 18 17 15 13 9 9 8 9 10 8 8 8 8 7 15 19 16 16 16 16 14 15 14 19 21 20 19 19 18 17 16
3 6 9 7 7 8 10 17 18 17 17 16 15 14 13 12 11 10 9 10 11 11 9 11 20 23 22 19 18 17 17 20 16 19 22 22 21 20 19 18 16 15 15
1 4 6 6 8 10 12 14 15 15 16 15 15 14 13 13 12 11 11 12 12 11 13 17 20 21 21 19 18 17 17 19 20 22 23 22 21 18 16 17 16 16 15
3 2 5 4 6 9 10 12 13 13 14 14 14 14 13 12 11 12 12 13 12 13 17 20 18 19 19 18 17 17 18 22 22 24 22 20 19 16 17 16 15 14 14
2 4 3 3 5 8 9 9 10 11 12 13 13 12 13 14 13 11 13 13 12 13 15 15 18 19 18 16 16 17 23 24 22 22 20 19 18 17 16 15 15 14 14
4 5 5 5 5 7 9 10 10 11 12 11 11 13 15 14 12 13 15 11 15 15 23 24 18 18 17 16 18 23 26 23 22 21 19 18 18 16 16 15 13 15 17
3 4 4 6 9 8 8 10 12 12 12 12 12 12 12 12 13 16 18 24 27 26 22 21 19 17 15 20 25 27 24 23 21 19 18 18 16 15 15 14 16 18 16
4 2 3 3 6 10 9 11 10 12 13 13 12 11 11 12 14 16 19 23 23 21 22 20 19 16 19 23 27 27 25 20 19 18 18 16 16 15 15 17 18 17 18
2 4 13 9 7 8 11 12 12 13 12 14 13 12 11 13 16 16 20 19 21 18 20 20 18 19 21 24 27 26 25 18 18 19 16 16 15 15 16 17 18 18 18
2 1 2 8 6 6 15 15 11 12 19 16 14 13 13 12 15 17 18 18 18 19 18 17 20 21 22 22 25 26 20 18 17 17 16 15 14 14 15 17 19 19 18
1 3 8 7 5 7 13 20 15 14 23 18 16 14 13 14 18 20 19 18 18 18 17 17 19 23 22 22 25 23 19 16 16 16 15 13 13 13 15 17 18 19 19
1 3 3 2 4 9 20 23 19 21 21 17 16 16 15 15 18 21 20 18 18 17 18 17 20 23 23 23 22 20 17 15 13 15 12 11 12 11 13 15 17 18 19
3 2 5 10 11 16 18 17 21 22 19 18 17 15 15 15 18 21 21 17 16 15 17 18 21 20 22 21 20 18 14 13 13 12 10 10 10 10 12 13 14 16 18
4 3 7 11 15 12 23 24 15 22 21 17 17 15 14 16 18 20 21 21 18 18 16 18 20 19 21 20 18 16 14 12 12 10 8 7 7 8 11 11 12 14 17
6 7 11 14 16 14 13 18 18 18 17 15 15 16 17 20 19 21 20 19 18 18 17 17 19 20 21 19 17 15 14 11 11 8 8 7 6 6 8 10 10 13 16
8 9 14 16 20 17 13 14 15 16 16 15 16 16 17 17 18 22 20 22 22 20 21 17 18 19 19 17 16 14 13 11 9 6 6 5 5 6 6 8 10 13 14
8 12 13 15 17 18 16 15 16 17 17 16 15 17 22 22 19 19 22 21 19 20 21 19 15 15 16 14 13 15 12 10 8 5 4 4 4 6 6 6 9 10 9
8 10 10 12 13 15 16 15 16 17 18 17 17 18 20 20 22 13 21 19 19 21 24 23 16 17 16 15 12 14 14 12 9 6 4 2 1 5 7 8 8 7 11
11 9 9 10 10 10 12 14 14 13 15 15 15 17 15 21 19 19 22 19 22 12 20 21 15 12 14 16 14 11 12 12 13 11 7 6 6 3 5 8 9 7 9
11 11 10 10 10 11 12 12 13 13 14 14 14 11 14 17 18 18 21 25 20 13 17 16 13 12 10 12 15 11 9 7 12 5 3 7 4 4 4 6 7 8 9
12 12 12 11 13 13 11 10 10 12 13 15 15 13 13 17 20 21 20 21 14 10 14 14 12 11 9 12 9 10 10 8 13 7 11 9 4 6 6 3 2 5 5
13 13 14 16 16 14 13 11 9 11 11 12 13 14 13 15 19 21 21 18 18 17 12 14 14 16 10 9 6 5 10 11 5 2 4 7 19 8 3 4 4 3 6
14 14 13 17 18 17 15 13 10 8 10 9 10 12 14 13 15 18 20 17 13 13 10 10 14 13 11 9 7 7 9 8 7 6 9 4 9 7 1 6 8 3 3

GFSSE_500_spd_141.txt.gz
Wind_Speed
6 3 1 1 1 0 8 11 12 14 15 18 18 15 14 11 10 9 9 9 9 10 12 13 14 14 14 16 17 17 17 17 16 16 16 15 14 14 16 16 15 15 16
7 5 5 4 3 2 5 14 17 16 17 16 19 19 15 13 10 9 9 9 10 11 11 12 13 14 16 17 16 16 17 16 17 16 16 16 19 21 21 20 17 16 16
8 8 8 8 8 7 7 15 26 23 19 16 14 19 16 12 10 9 8 8 9 10 12 11 13 13 16 15 16 16 16 17 17 18 17 22 22 20 20 16 16 17 16
7 8 7 8 7 10 10 19 20 19 18 15 15 16 16 11 9 10 9 8 9 11 11 10 11 16 17 16 17 16 18 17 18 22 21 22 20 18 17 16 17 15 15
6 7 8 7 7 9 5 8 12 17 17 16 16 15 14 11 9 9 10 11 12 12 13 16 21 21 18 17 18 18 21 23 25 23 21 20 19 17 17 16 15 15 15
9 6 10 8 8 10 9 11 16 17 16 15 14 13 11 9 10 10 11 12 11 14 22 23 20 21 19 17 19 18 24 26 23 19 19 18 19 17 15 15 15 16 16
9 7 10 10 10 11 12 12 12 13 14 14 13 13 12 11 11 11 12 13 15 18 24 22 21 20 20 17 19 23 26 22 20 17 19 20 17 16 15 15 16 15 16
9 8 9 10 10 10 11 12 12 12 12 12 12 13 13 11 10 10 13 14 16 18 21 20 19 20 20 19 23 25 25 19 16 19 19 17 18 16 16 16 15 17 18
9 8 8 9 10 10 10 11 11 12 13 13 12 14 14 12 12 10 12 13 14 17 14 18 18 18 18 22 27 22 22 18 16 19 17 18 17 17 17 16 18 20 19
6 5 6 6 6 12 10 10 12 13 12 13 14 15 12 13 12 12 13 15 14 18 22 18 18 16 19 26 27 24 21 18 15 18 17 18 17 17 19 20 19 19 19
6 1 8 8 10 9 9 11 12 13 13 13 14 14 13 14 14 18 22 24 25 21 20 19 17 19 24 25 24 23 21 17 15 17 17 16 17 18 18 19 18 19 19
3 5 8 11 9 11 12 12 12 13 15 16 15 13 13 14 16 19 22 21 20 19 18 18 20 22 24 23 21 22 21 16 14 16 15 15 16 18 18 19 21 20 20
3 3 3 4 7 8 13 14 13 13 15 16 16 15 14 15 16 19 24 24 17 18 19 18 22 25 23 21 18 20 18 14 15 15 14 14 16 16 19 22 23 20 20
3 3 6 1 8 9 14 15 13 14 17 15 14 14 13 15 17 16 18 19 18 19 19 20 22 25 24 19 15 17 16 14 14 13 12 13 15 15 17 20 21 22 21
2 1 3 5 13 6 12 15 12 16 19 17 15 15 14 15 19 17 17 20 19 16 19 21 22 24 23 19 16 14 15 14 12 11 11 12 13 13 14 17 21 22 21
2 3 2 2 4 15 18 20 16 20 19 17 16 16 16 17 18 18 17 19 20 18 20 22 23 22 22 20 15 13 13 13 11 10 10 10 10 13 14 15 17 20 21
5 7 6 8 15 17 18 17 18 19 19 17 15 15 16 18 20 20 18 20 20 21 22 23 24 22 20 18 16 14 12 12 10 10 9 7 5 9 10 13 16 17 20
6 3 9 10 12 15 18 18 20 19 17 18 18 16 17 18 21 19 17 18 20 19 20 24 22 21 20 17 15 14 13 11 10 9 9 5 5 6 9 12 11 14 17
8 8 11 13 15 15 20 16 19 18 16 17 17 15 16 18 23 22 21 20 18 21 22 22 22 20 21 20 18 16 11 9 9 9 7 5 4 4 6 9 11 17 15
9 7 9 15 13 13 14 17 18 17 15 15 15 15 15 17 20 22 24 21 20 16 19 16 21 21 17 14 12 13 12 7 7 5 3 2 5 2 5 2 12 12 17
11 9 9 8 11 9 12 14 15 14 14 15 17 18 18 19 20 26 22 19 18 19 18 17 18 19 14 10 6 6 6 6 2 4 2 5 5 5 2 6 10 10 13
11 10 8 7 6 6 6 8 12 15 14 12 12 16 21 19 18 17 15 19 20 18 9 13 13 13 12 10 9 8 6 3 4 6 8 6 6 6 5 7 11 5 8
12 10 9 8 7 8 8 9 11 11 12 12 14 14 21 21 18 17 15 15 16 7 11 11 13 15 12 10 7 6 7 3 3 7 6 9 6 7 5 7 7 8 8
12 10 9 9 8 9 9 7 7 10 11 13 16 15 13 17 19 21 23 19 15 16 13 14 17 13 11 10 7 6 6 7 7 8 14 9 7 7 5 7 6 8 9
15 14 11 11 10 9 9 10 10 10 10 11 12 14 15 16 18 22 24 21 20 19 16 17 14 11 4 6 7 7 7 8 11 7 12 6 12 13 6 6 7 8 6
15 14 13 12 11 10 11 11 11 12 11 11 12 13 13 16 17 19 23 23 18 20 11 12 12 13 10 11 5 7 7 7 8 5 7 4 5 6 6 7 11 8 8

GFSSE_500_spd_144.txt.gz
Wind_Speed
5 5 6 6 5 4 10 12 10 7 15 19 17 12 11 8 8 9 9 9 9 9 11 12 12 14 16 16 16 15 16 16 15 15 13 14 15 16 16 15 15 14 13
5 7 7 3 5 6 8 13 12 10 12 19 15 12 11 10 10 9 9 9 10 10 11 11 14 17 17 17 16 16 15 16 16 14 16 19 19 18 16 15 14 13 13
8 7 8 7 8 3 7 12 14 14 12 19 19 16 13 10 11 9 8 9 11 11 11 11 15 16 13 16 16 15 16 16 17 20 19 20 18 16 15 14 13 13 13
7 9 11 10 11 13 8 10 18 21 19 19 19 17 17 11 10 9 9 9 11 11 10 12 16 13 16 17 16 15 16 21 22 20 17 18 17 17 15 13 13 14 14
9 8 9 12 14 13 10 11 19 20 18 13 14 14 13 11 10 9 11 11 11 11 9 14 17 19 17 18 16 19 24 24 21 18 16 18 18 15 14 13 14 15 13
8 9 9 12 12 14 13 10 11 14 15 14 14 13 10 10 11 12 12 13 13 15 16 20 18 19 18 19 20 24 23 22 19 17 17 18 16 14 15 16 15 14 13
8 9 10 11 12 12 12 13 14 14 13 12 13 12 11 10 11 11 12 13 18 20 17 17 18 19 18 20 24 22 22 19 17 15 16 16 17 18 17 15 15 15 14
8 9 10 11 11 12 13 12 13 14 15 15 14 13 12 11 10 10 13 16 21 20 17 16 17 18 19 22 21 22 21 17 14 15 16 19 19 18 16 17 17 17 17
8 9 10 11 12 12 12 13 13 13 14 15 16 14 12 10 10 12 12 18 20 20 17 17 18 18 19 22 21 20 20 16 12 16 18 20 19 19 19 19 18 17 16
8 7 9 10 10 12 13 12 14 16 16 17 17 14 12 11 11 14 15 16 19 16 16 17 17 18 22 22 19 19 19 15 14 15 20 19 21 21 20 18 17 18 17
7 7 9 11 11 13 13 13 14 14 15 17 17 15 13 11 12 15 14 14 15 17 16 15 16 22 22 19 18 19 17 15 14 14 19 21 22 22 19 18 17 17 18
5 2 10 10 11 10 13 15 15 16 16 16 15 15 14 14 16 20 21 21 20 19 18 18 21 24 20 17 15 18 17 13 12 15 18 20 21 22 23 22 19 18 18
6 9 12 8 11 11 12 15 17 17 18 17 16 15 15 15 16 21 21 19 18 19 20 22 25 23 18 16 14 16 14 12 10 15 17 17 18 22 22 22 20 18 18
7 5 6 5 10 12 13 16 17 16 17 18 17 17 16 17 18 20 19 18 17 16 19 22 24 23 19 15 13 14 11 9 10 14 16 16 16 17 17 21 22 21 20
4 2 7 3 7 11 14 15 13 15 18 17 17 17 15 16 15 17 15 17 19 18 20 22 23 21 20 15 13 13 10 7 10 12 13 14 14 14 15 18 21 24 22
3 3 4 5 9 11 14 15 13 20 18 17 17 16 16 16 15 16 17 18 19 20 23 24 24 21 19 16 14 11 11 8 10 10 11 10 10 10 13 17 22 24 23
5 8 8 5 9 12 16 18 15 22 19 16 16 17 18 20 17 14 16 15 16 18 21 23 25 23 18 16 14 10 7 7 7 7 8 6 7 8 10 14 16 19 22
7 5 11 12 12 16 19 18 18 19 19 17 17 17 17 18 16 15 14 15 15 16 19 20 20 20 18 15 12 9 6 7 6 6 8 8 10 13 11 11 12 16 22
7 11 13 13 14 11 15 17 18 18 17 17 17 16 15 17 16 14 13 15 17 18 19 19 18 17 16 12 11 10 7 5 6 6 6 7 9 11 11 13 11 16 14
7 10 13 15 12 11 12 16 16 17 17 16 15 17 15 18 18 16 15 14 15 16 18 18 16 14 10 10 11 8 4 5 5 4 6 7 7 10 12 10 8 11 15
8 8 11 12 12 13 10 13 15 15 16 16 16 15 14 19 19 18 15 13 13 14 14 13 12 10 9 9 8 7 0 2 4 4 4 4 5 7 9 10 9 5 12
10 11 11 10 10 10 11 12 15 18 17 16 15 15 16 17 19 19 18 15 19 15 13 10 10 10 10 9 7 2 2 2 1 2 6 8 8 8 7 8 8 9 9
12 13 13 15 11 9 9 8 9 13 14 15 15 15 16 17 18 20 20 17 14 15 7 12 9 9 11 8 7 6 3 4 5 8 7 9 16 6 5 5 8 11 7
10 11 13 14 15 11 10 9 10 12 13 14 15 15 18 18 17 17 21 20 18 9 13 10 9 8 9 7 7 6 5 4 5 10 5 13 11 10 2 4 7 4 3
12 13 11 13 14 12 10 11 10 9 9 11 13 13 14 17 17 20 23 21 15 17 11 11 9 9 9 9 7 8 7 7 6 2 7 9 9 8 2 4 3 4 3
11 12 11 11 13 12 11 10 11 11 10 9 9 11 14 16 18 18 19 20 18 16 12 12 10 11 11 8 7 9 6 6 7 7 7 7 8 9 6 6 9 5 2